Back to catalog

NIMBUS 2 DEB

AliveSSO
NORAD 47186·DEBRIS·🇺🇸 United States

Launched May 15, 1966 from Vandenberg Space Force Base

Loading…

Next Passes (next 24 hours)

TLE

FreshSource: Space-Track

Epoch: Sep 14, 2026, 00:26 UTC

1 47186U 66040BW  26257.01833219  .00000922  00000-0  17458-2 0  9991
2 47186 100.4105 100.8872 0061511  45.4380 315.1746 13.40575210288949

Track NIMBUS 2 DEB in real time with AllMySat

Download on the App Store